Regional Weather Roundup
Issued by NWS

Home | Current Version | Previous Version | Graphics & Text | Print | Product List | Glossary On
Versions: 1 2 3 4 5 6 7 8 9 10 11 12 13 14 15 16 17 18 19 20 21 22 23 24 25 26 27 28 29 30 31 32 33 34 35 36 37 38 39 40 41 42 43 44 45 46 47 48 49 50
000
ASUS43 KLMK 241302
RWRKY
KENTUCKY REGIONAL WEATHER ROUNDUP
NATIONAL WEATHER SERVICE LOUISVILLE KY
900 AM EDT SUN SEP 24 2017

NOTE "FAIR" INDICATES FEW OR NO CLOUDS BELOW 12,000 FEET
WITH NO SIGNIFICANT WEATHER AND/OR OBSTRUCTIONS TO VISIBILITY.

KYZ001>023-026-027-061>063-070>075-241400-
WESTERN AND SOUTH CENTRAL KENTUCKY

CITY           SKY/WX    TMP DP  RH WIND       PRES   REMARKS
PADUCAH        SUNNY     71  67  87 CALM      30.04S FOG
HENDERSON      SUNNY     67  66  97 CALM      30.07S FOG
OWENSBORO      SUNNY     70  66  87 CALM      30.07S
HOPKINSVILLE   SUNNY     70  67  88 E3        30.06R
BOWLING GREEN  SUNNY     69  66  90 CALM      30.08R
GLASGOW        SUNNY     68  67  97 CALM      30.09S
$$

KYZ024-025-028>034-038-045-046-053-241400-
NORTH CENTRAL KENTUCKY

CITY           SKY/WX    TMP DP  RH WIND       PRES   REMARKS
LOUISVILLE/SDF MOSUNNY   73  64  73 NE3       30.08S
LOUISVILLE/LOU SUNNY     70  68  93 CALM      30.09S
FORT KNOX      SUNNY     69  64  84 E5        30.07S
$$

KYZ035>037-039>044-047>052-055>060-089>105-241400-
NORTHEAST KENTUCKY

CITY           SKY/WX    TMP DP  RH WIND       PRES   REMARKS
LEXINGTON      SUNNY     70  63  78 CALM      30.12R
COVINGTON      MOSUNNY   70  63  78 E8        30.12R
FRANKFORT      SUNNY     69  61  75 E6        30.10R
$$

KYZ054-064>069-076>088-106>120-241400-
SOUTHEAST KENTUCKY

CITY           SKY/WX    TMP DP  RH WIND       PRES   REMARKS
JACKSON        SUNNY     68  61  78 E5        30.14S
LONDON         SUNNY     66  62  87 CALM      30.12S
SOMERSET       SUNNY     64  64 100 CALM      30.13R
MIDDLESBORO    SUNNY     64  63  97 CALM      30.15S
MONTICELLO     SUNNY     69  66  90 VRB6      30.13R
$$





USA.gov is the U.S. government's official web portal to all federal, state and local government web resources and services.